Weather History for Kendall, FL

Change the Weather History Date:

Wednesday, January 9, 2013

  Actual Average Record
Temperature  
Mean Temperature 78 °F -  
Max Temperature 82 °F 81 °F 85 °F (1990)
Min Temperature 73 °F 59 °F 39 °F (2002)
Cooling Degree Days 12    
Growing Degree Days 28 (Base 50)    
Moisture  
Dew Point 70 °F    
Average Humidity 80    
Maximum Humidity 89    
Minimum Humidity 69    
Precipitation  
Precipitation 0.00 in - - ()
Sea Level Pressure  
Sea Level Pressure 30.22 in    
Wind  
Wind Speed 13 mph (ESE)    
Max Wind Speed 22 mph    
Max Gust Speed 29 mph    
Visibility 10 miles    
Events      
Averages and records for this station are not official NWS values.
T = Trace of Precipitation, MM = Missing Value Source: NWS Daily Summary

Daily Weather History Graph

Daily Weather History Graph

Search for Another Location

Airport:

Trip Planner

Search our weather history database for the weather conditions in past years. The results will help you decide how hot, cold, wet, or windy it might be!

Date:

Astronomy

Jan. 09, 2013 Rise Set
Actual Time 7:09 AM EST 5:48 PM EST
Civil Twilight 6:44 AM EST 6:13 PM EST
Nautical Twilight 6:16 AM EST 6:41 PM EST
Astronomical Twilight 5:48 AM EST 7:09 PM EST
Moon 4:47 AM EST (1/9) 3:48 PM EST (1/9)
Length of Visible Light 11h 28m
Length of Day
10h 38m
Waning Crescent, 6% of the Moon is Illuminated
Jan 9
Waning Crescent
Jan 11
New
Jan 18
First Quarter
Jan 26
Full
Feb 3
Last Quarter

Hourly Weather History & Observations

Time (EST) Temp. Heat Index Dew Point Humidity Pressure Visibility Wind Dir Wind Speed Gust Speed Precip Events Conditions
12:53 AM 77.0 °F - 69.1 °F 76% 30.16 in 10.0 mi ESE 9.2 mph - N/A   Overcast
1:53 AM 77.0 °F - 71.1 °F 82% 30.16 in 10.0 mi ESE 11.5 mph - N/A   Overcast
2:28 AM 75.2 °F - 71.6 °F 89% 30.16 in 10.0 mi ESE 11.5 mph - N/A   Mostly Cloudy
2:42 AM 75.2 °F - 71.6 °F 89% 30.17 in 10.0 mi ESE 11.5 mph - N/A   Scattered Clouds
2:53 AM 75.0 °F - 71.1 °F 87% 30.17 in 10.0 mi ESE 11.5 mph - N/A   Partly Cloudy
3:32 AM 75.2 °F - 69.8 °F 83% 30.17 in 10.0 mi ESE 11.5 mph - N/A   Mostly Cloudy
3:39 AM 75.2 °F - 69.8 °F 83% 30.18 in 10.0 mi ESE 10.4 mph - N/A   Partly Cloudy
3:53 AM 73.9 °F - 70.0 °F 87% 30.18 in 10.0 mi East 8.1 mph - N/A   Scattered Clouds
4:53 AM 75.0 °F - 70.0 °F 84% 30.19 in 10.0 mi ESE 9.2 mph - N/A   Mostly Cloudy
5:53 AM 75.0 °F - 69.1 °F 82% 30.19 in 10.0 mi ESE 11.5 mph - N/A   Mostly Cloudy
6:53 AM 73.9 °F - 69.1 °F 85% 30.21 in 10.0 mi ESE 9.2 mph - N/A   Partly Cloudy
7:53 AM 75.9 °F - 70.0 °F 82% 30.23 in 10.0 mi ESE 10.4 mph - N/A   Partly Cloudy
8:53 AM 78.1 °F - 71.1 °F 79% 30.25 in 10.0 mi ESE 17.3 mph - N/A   Scattered Clouds
9:40 AM 78.8 °F - 71.6 °F 78% 30.26 in 10.0 mi ESE 13.8 mph 24.2 mph N/A   Mostly Cloudy
9:53 AM 80.1 °F 83.6 °F 71.1 °F 74% 30.26 in 10.0 mi ESE 21.9 mph 28.8 mph N/A   Mostly Cloudy
10:08 AM 80.6 °F 84.6 °F 71.6 °F 74% 30.26 in 10.0 mi ESE 17.3 mph 24.2 mph N/A   Scattered Clouds
10:53 AM 81.0 °F 84.9 °F 71.1 °F 72% 30.25 in 10.0 mi ESE 19.6 mph 25.3 mph N/A   Mostly Cloudy
11:53 AM 82.0 °F 86.3 °F 71.1 °F 69% 30.23 in 10.0 mi ESE 21.9 mph 28.8 mph N/A   Mostly Cloudy
12:53 PM 81.0 °F 84.4 °F 70.0 °F 69% 30.21 in 10.0 mi ESE 18.4 mph 27.6 mph N/A   Mostly Cloudy
1:53 PM 81.0 °F 84.4 °F 70.0 °F 69% 30.20 in 10.0 mi ESE 18.4 mph 25.3 mph N/A   Mostly Cloudy
2:07 PM 80.6 °F 83.9 °F 69.8 °F 70% 30.20 in 10.0 mi ESE 19.6 mph 24.2 mph N/A   Scattered Clouds
2:26 PM 80.6 °F 83.9 °F 69.8 °F 70% 30.19 in 10.0 mi ESE 18.4 mph 24.2 mph N/A   Mostly Cloudy
2:53 PM 81.0 °F 84.4 °F 70.0 °F 69% 30.19 in 10.0 mi ESE 16.1 mph - N/A   Mostly Cloudy
3:49 PM 78.8 °F - 69.8 °F 74% 30.20 in 10.0 mi ESE 15.0 mph - N/A   Scattered Clouds
3:53 PM 79.0 °F - 70.0 °F 74% 30.20 in 10.0 mi ESE 13.8 mph - N/A   Mostly Cloudy
4:53 PM 78.1 °F - 70.0 °F 76% 30.21 in 10.0 mi ESE 15.0 mph - N/A   Overcast
5:40 PM 77.0 °F - 71.6 °F 83% 30.22 in 10.0 mi East 11.5 mph 20.7 mph N/A   Mostly Cloudy
5:53 PM 75.9 °F - 71.1 °F 85% 30.22 in 10.0 mi East 11.5 mph - N/A   Mostly Cloudy
6:53 PM 75.9 °F - 71.1 °F 85% 30.24 in 10.0 mi East 11.5 mph - N/A   Mostly Cloudy
7:53 PM 75.0 °F - 71.1 °F 87% 30.24 in 10.0 mi East 12.7 mph - N/A   Clear
8:53 PM 75.0 °F - 71.1 °F 87% 30.25 in 10.0 mi East 13.8 mph - N/A   Clear
9:26 PM 75.2 °F - 71.6 °F 89% 30.26 in 10.0 mi East 11.5 mph - N/A   Mostly Cloudy
9:44 PM 75.2 °F - 71.6 °F 89% 30.27 in 10.0 mi East 10.4 mph 25.3 mph N/A   Mostly Cloudy
9:53 PM 75.9 °F - 71.1 °F 85% 30.27 in 10.0 mi East 12.7 mph - N/A   Mostly Cloudy
10:53 PM 75.9 °F - 69.1 °F 79% 30.27 in 10.0 mi East 13.8 mph - N/A   Clear
11:53 PM 75.9 °F - 69.1 °F 79% 30.27 in 10.0 mi ESE 12.7 mph - N/A   Scattered Clouds